QPF
0.00 0.00 0.00 0.00 0.00 0.00 0.00 0.00 0.00 0.00 0.00 0.00 0.00 0.00 0.00 0.00 0.00 0.00 0.00 0.00 0.00 0.00 0.00 0.00 0.00 0.00 0.00 0.00 0.00 0.00 0.00 0.00 0.00 0.00 0.00 0.00 0.00 0.00 0.00 0.00 0.00 0.00 0.00
0.00 0.00 0.00 0.00 0.00 0.00 0.00 0.00 0.00 0.00 0.00 0.00 0.00 0.00 0.00 0.00 0.00 0.00 0.00 0.00 0.00 0.00 0.00 0.00 0.00 0.00 0.00 0.00 0.00 0.00 0.00 0.00 0.00 0.00 0.00 0.00 0.00 0.00 0.00 0.00 0.00 0.00 0.00
0.00 0.00 0.00 0.00 0.00 0.00 0.00 0.00 0.00 0.00 0.00 0.00 0.00 0.00 0.00 0.00 0.00 0.00 0.00 0.00 0.00 0.00 0.00 0.00 0.00 0.00 0.00 0.00 0.00 0.00 0.00 0.00 0.00 0.00 0.00 0.00 0.00 0.00 0.00 0.00 0.00 0.00 0.00
0.00 0.00 0.00 0.00 0.00 0.00 0.00 0.00 0.00 0.00 0.00 0.00 0.00 0.00 0.00 0.00 0.00 0.00 0.00 0.00 0.00 0.00 0.00 0.00 0.00 0.00 0.00 0.00 0.00 0.00 0.00 0.00 0.00 0.00 0.00 0.00 0.00 0.00 0.00 0.00 0.00 0.00 0.00
0.00 0.00 0.00 0.00 0.00 0.00 0.00 0.00 0.00 0.00 0.00 0.00 0.00 0.00 0.00 0.00 0.00 0.00 0.00 0.00 0.00 0.00 0.00 0.00 0.01 0.01 0.01 0.01 0.01 0.00 0.00 0.00 0.00 0.00 0.00 0.00 0.00 0.00 0.00 0.00 0.00 0.00 0.00
0.00 0.00 0.00 0.00 0.00 0.00 0.00 0.00 0.00 0.00 0.00 0.00 0.00 0.00 0.00 0.00 0.00 0.00 0.00 0.01 0.01 0.01 0.01 0.01 0.01 0.01 0.01 0.01 0.01 0.00 0.00 0.00 0.00 0.00 0.00 0.00 0.00 0.00 0.00 0.00 0.00 0.00 0.00
0.00 0.00 0.00 0.00 0.00 0.00 0.00 0.00 0.00 0.00 0.00 0.00 0.00 0.00 0.00 0.00 0.01 0.01 0.01 0.01 0.01 0.01 0.01 0.01 0.01 0.02 0.02 0.02 0.01 0.00 0.00 0.00 0.00 0.00 0.00 0.00 0.00 0.00 0.00 0.00 0.00 0.00 0.00
0.00 0.00 0.00 0.00 0.00 0.00 0.00 0.00 0.00 0.00 0.00 0.00 0.00 0.00 0.01 0.01 0.02 0.02 0.02 0.02 0.01 0.01 0.02 0.02 0.02 0.02 0.02 0.02 0.02 0.01 0.00 0.00 0.00 0.00 0.00 0.00 0.00 0.00 0.00 0.00 0.00 0.00 0.00
0.00 0.00 0.00 0.00 0.00 0.00 0.00 0.00 0.00 0.00 0.00 0.00 0.01 0.01 0.02 0.02 0.04 0.03 0.03 0.02 0.02 0.02 0.03 0.03 0.03 0.03 0.02 0.03 0.02 0.01 0.00 0.00 0.00 0.00 0.00 0.00 0.00 0.00 0.01 0.02 0.01 0.01 0.01
0.00 0.00 0.00 0.00 0.00 0.00 0.00 0.00 0.00 0.00 0.01 0.01 0.02 0.03 0.04 0.05 0.06 0.06 0.05 0.04 0.04 0.04 0.04 0.04 0.03 0.03 0.03 0.04 0.03 0.02 0.01 0.00 0.00 0.00 0.00 0.00 0.00 0.00 0.00 0.02 0.02 0.03 0.02
0.00 0.00 0.00 0.00 0.00 0.00 0.00 0.00 0.01 0.01 0.03 0.05 0.06 0.07 0.08 0.09 0.10 0.10 0.08 0.06 0.05 0.05 0.06 0.05 0.03 0.04 0.05 0.05 0.04 0.03 0.01 0.00 0.01 0.01 0.00 0.00 0.00 0.00 0.00 0.01 0.02 0.02 0.03
0.00 0.00 0.00 0.00 0.00 0.00 0.01 0.02 0.03 0.04 0.07 0.09 0.11 0.13 0.14 0.15 0.15 0.13 0.10 0.08 0.06 0.07 0.06 0.04 0.03 0.04 0.06 0.06 0.05 0.03 0.01 0.02 0.03 0.02 0.01 0.01 0.00 0.00 0.00 0.01 0.01 0.01 0.02
0.00 0.00 0.00 0.00 0.01 0.01 0.02 0.03 0.05 0.07 0.09 0.11 0.13 0.15 0.16 0.16 0.16 0.14 0.12 0.10 0.09 0.09 0.06 0.04 0.04 0.05 0.07 0.06 0.05 0.03 0.03 0.04 0.03 0.03 0.02 0.01 0.00 0.00 0.01 0.01 0.01 0.01 0.01
0.00 0.01 0.01 0.01 0.01 0.02 0.02 0.03 0.05 0.07 0.09 0.11 0.12 0.12 0.13 0.13 0.13 0.12 0.12 0.11 0.10 0.09 0.07 0.05 0.04 0.05 0.06 0.05 0.04 0.03 0.03 0.03 0.03 0.02 0.02 0.01 0.01 0.01 0.01 0.01 0.01 0.02 0.01
0.01 0.01 0.01 0.01 0.02 0.02 0.03 0.03 0.04 0.04 0.05 0.06 0.07 0.07 0.08 0.07 0.06 0.06 0.08 0.08 0.07 0.06 0.07 0.07 0.06 0.05 0.04 0.04 0.03 0.02 0.02 0.03 0.03 0.03 0.03 0.03 0.03 0.02 0.02 0.02 0.02 0.02 0.01
0.01 0.01 0.02 0.02 0.02 0.02 0.03 0.03 0.04 0.04 0.04 0.04 0.04 0.04 0.04 0.03 0.03 0.04 0.04 0.04 0.04 0.05 0.06 0.05 0.03 0.02 0.02 0.02 0.02 0.02 0.02 0.02 0.02 0.03 0.03 0.03 0.02 0.02 0.02 0.02 0.02 0.01 0.01
0.01 0.01 0.01 0.01 0.02 0.02 0.02 0.02 0.02 0.02 0.02 0.02 0.02 0.02 0.02 0.02 0.02 0.02 0.02 0.02 0.03 0.03 0.04 0.02 0.01 0.01 0.01 0.01 0.01 0.01 0.02 0.02 0.02 0.02 0.02 0.02 0.02 0.02 0.02 0.02 0.01 0.01 0.01
0.01 0.01 0.01 0.01 0.01 0.01 0.01 0.00 0.00 0.00 0.01 0.01 0.01 0.01 0.01 0.01 0.01 0.01 0.01 0.02 0.02 0.02 0.02 0.01 0.01 0.01 0.01 0.01 0.01 0.01 0.01 0.01 0.02 0.02 0.02 0.02 0.02 0.02 0.01 0.01 0.01 0.01 0.01
0.00 0.00 0.00 0.00 0.00 0.00 0.00 0.00 0.00 0.00 0.00 0.00 0.00 0.01 0.01 0.01 0.01 0.01 0.01 0.01 0.01 0.01 0.01 0.01 0.01 0.01 0.01 0.01 0.01 0.01 0.01 0.01 0.01 0.01 0.01 0.01 0.01 0.01 0.01 0.01 0.01 0.01 0.01
0.00 0.00 0.00 0.00 0.00 0.00 0.00 0.00 0.00 0.00 0.00 0.00 0.00 0.00 0.00 0.00 0.01 0.01 0.01 0.01 0.01 0.01 0.01 0.01 0.01 0.01 0.01 0.01 0.01 0.01 0.01 0.01 0.01 0.01 0.01 0.01 0.01 0.01 0.01 0.01 0.01 0.01 0.01
0.00 0.00 0.00 0.00 0.00 0.00 0.00 0.00 0.00 0.00 0.00 0.00 0.00 0.00 0.00 0.00 0.00 0.00 0.00 0.00 0.01 0.01 0.01 0.01 0.01 0.01 0.01 0.01 0.01 0.01 0.01 0.01 0.00 0.01 0.00 0.00 0.00 0.00 0.00 0.00 0.00 0.00 0.00
0.00 0.00 0.00 0.00 0.00 0.00 0.00 0.00 0.00 0.00 0.00 0.00 0.00 0.00 0.01 0.00 0.00 0.00 0.00 0.00 0.00 0.01 0.01 0.01 0.01 0.01 0.01 0.01 0.00 0.00 0.00 0.00 0.00 0.00 0.00 0.00 0.00 0.00 0.00 0.00 0.00 0.00 0.00
0.00 0.00 0.00 0.00 0.00 0.00 0.00 0.00 0.00 0.00 0.00 0.00 0.00 0.00 0.00 0.00 0.00 0.00 0.00 0.00 0.00 0.00 0.00 0.00 0.00 0.00 0.00 0.00 0.00 0.00 0.00 0.00 0.00 0.00 0.00 0.00 0.00 0.00 0.00 0.00 0.00 0.00 0.00
0.00 0.00 0.00 0.00 0.00 0.00 0.00 0.00 0.00 0.00 0.00 0.00 0.00 0.00 0.00 0.00 0.00 0.00 0.00 0.00 0.00 0.00 0.00 0.00 0.00 0.00 0.00 0.00 0.00 0.00 0.00 0.00 0.00 0.00 0.00 0.00 0.00 0.00 0.00 0.00 0.00 0.00 0.00
0.00 0.00 0.00 0.00 0.00 0.00 0.00 0.00 0.00 0.00 0.00 0.00 0.00 0.00 0.00 0.00 0.00 0.00 0.00 0.00 0.00 0.00 0.00 0.00 0.00 0.00 0.00 0.00 0.00 0.00 0.00 0.00 0.00 0.00 0.00 0.00 0.00 0.00 0.00 0.00 0.00 0.00 0.00
0.00 0.00 0.00 0.00 0.00 0.00 0.00 0.00 0.00 0.00 0.00 0.00 0.00 0.00 0.00 0.00 0.00 0.00 0.00 0.00 0.00 0.00 0.00 0.00 0.00 0.00 0.00 0.00 0.00 0.00 0.00 0.00 0.00 0.00 0.00 0.00 0.00 0.00 0.00 0.00 0.00 0.00 0.00
MSLP
1014.41 1014.63 1014.85 1015.10 1015.41 1015.78 1016.24 1016.77 1017.38 1018.03 1018.70 1019.36 1019.98 1020.57 1021.11 1021.62 1022.14 1022.67 1023.26 1023.90 1024.61 1025.35 1026.10 1026.83 1027.51 1028.11 1028.62 1029.04 1029.41 1029.74 1030.07 1030.42 1030.82 1031.25 1031.71 1032.15 1032.54 1032.85 1033.04 1033.11 1033.05 1032.88 1032.62
1013.92 1014.19 1014.45 1014.72 1015.04 1015.41 1015.85 1016.37 1016.94 1017.56 1018.19 1018.82 1019.42 1019.98 1020.52 1021.04 1021.57 1022.14 1022.77 1023.48 1024.25 1025.08 1025.92 1026.74 1027.51 1028.18 1028.75 1029.21 1029.58 1029.90 1030.19 1030.48 1030.79 1031.13 1031.49 1031.83 1032.14 1032.38 1032.52 1032.55 1032.48 1032.30 1032.06
1013.24 1013.59 1013.92 1014.26 1014.63 1015.04 1015.50 1016.01 1016.57 1017.16 1017.76 1018.34 1018.90 1019.42 1019.93 1020.43 1020.95 1021.53 1022.19 1022.93 1023.77 1024.66 1025.59 1026.50 1027.35 1028.11 1028.76 1029.27 1029.69 1030.01 1030.28 1030.52 1030.77 1031.02 1031.28 1031.53 1031.74 1031.90 1031.99 1031.97 1031.87 1031.69 1031.45
1012.40 1012.84 1013.27 1013.71 1014.16 1014.64 1015.14 1015.68 1016.24 1016.81 1017.37 1017.92 1018.43 1018.91 1019.37 1019.83 1020.33 1020.90 1021.56 1022.33 1023.19 1024.14 1025.12 1026.11 1027.04 1027.89 1028.61 1029.19 1029.65 1030.00 1030.26 1030.48 1030.66 1030.84 1031.01 1031.17 1031.31 1031.40 1031.42 1031.37 1031.25 1031.06 1030.82
1011.48 1012.01 1012.55 1013.09 1013.63 1014.18 1014.75 1015.32 1015.90 1016.47 1017.02 1017.54 1018.01 1018.46 1018.88 1019.31 1019.79 1020.33 1020.98 1021.74 1022.62 1023.58 1024.61 1025.64 1026.62 1027.53 1028.31 1028.95 1029.44 1029.81 1030.07 1030.26 1030.41 1030.53 1030.63 1030.72 1030.79 1030.82 1030.81 1030.74 1030.61 1030.43 1030.20
1010.58 1011.19 1011.81 1012.44 1013.06 1013.69 1014.32 1014.94 1015.55 1016.14 1016.69 1017.20 1017.67 1018.09 1018.50 1018.91 1019.37 1019.89 1020.52 1021.27 1022.13 1023.09 1024.11 1025.15 1026.15 1027.08 1027.88 1028.54 1029.05 1029.43 1029.68 1029.85 1029.96 1030.03 1030.09 1030.13 1030.16 1030.16 1030.14 1030.07 1029.96 1029.79 1029.58
1009.84 1010.49 1011.16 1011.84 1012.52 1013.21 1013.88 1014.55 1015.20 1015.81 1016.39 1016.91 1017.39 1017.83 1018.24 1018.66 1019.11 1019.63 1020.24 1020.96 1021.80 1022.72 1023.70 1024.71 1025.68 1026.58 1027.36 1028.01 1028.50 1028.85 1029.09 1029.23 1029.31 1029.34 1029.37 1029.39 1029.40 1029.41 1029.40 1029.36 1029.28 1029.15 1028.98
1009.35 1010.00 1010.67 1011.37 1012.07 1012.78 1013.49 1014.18 1014.86 1015.51 1016.11 1016.68 1017.19 1017.66 1018.10 1018.54 1019.01 1019.53 1020.13 1020.82 1021.61 1022.47 1023.39 1024.32 1025.22 1026.05 1026.77 1027.35 1027.80 1028.11 1028.30 1028.41 1028.46 1028.48 1028.49 1028.50 1028.52 1028.55 1028.58 1028.59 1028.56 1028.50 1028.38
1009.14 1009.75 1010.39 1011.06 1011.75 1012.45 1013.16 1013.87 1014.57 1015.24 1015.88 1016.48 1017.04 1017.56 1018.05 1018.52 1019.01 1019.54 1020.13 1020.78 1021.51 1022.29 1023.12 1023.95 1024.74 1025.46 1026.09 1026.59 1026.96 1027.21 1027.36 1027.43 1027.46 1027.46 1027.47 1027.50 1027.55 1027.62 1027.70 1027.77 1027.82 1027.83 1027.78
1009.20 1009.73 1010.32 1010.94 1011.58 1012.25 1012.94 1013.64 1014.34 1015.03 1015.69 1016.33 1016.92 1017.48 1018.01 1018.52 1019.03 1019.56 1020.13 1020.74 1021.40 1022.09 1022.81 1023.52 1024.20 1024.80 1025.32 1025.72 1026.02 1026.21 1026.31 1026.35 1026.37 1026.37 1026.39 1026.45 1026.53 1026.65 1026.79 1026.93 1027.05 1027.13 1027.16
1009.44 1009.90 1010.41 1010.96 1011.55 1012.18 1012.83 1013.50 1014.18 1014.87 1015.54 1016.18 1016.80 1017.38 1017.93 1018.45 1018.97 1019.49 1020.02 1020.58 1021.17 1021.78 1022.39 1022.98 1023.54 1024.04 1024.45 1024.77 1025.00 1025.14 1025.21 1025.24 1025.25 1025.27 1025.31 1025.39 1025.52 1025.69 1025.88 1026.08 1026.27 1026.43 1026.53
1009.80 1010.18 1010.61 1011.10 1011.63 1012.20 1012.81 1013.45 1014.10 1014.76 1015.41 1016.04 1016.65 1017.22 1017.76 1018.27 1018.77 1019.25 1019.75 1020.25 1020.76 1021.28 1021.80 1022.30 1022.76 1023.17 1023.51 1023.77 1023.95 1024.07 1024.14 1024.17 1024.20 1024.24 1024.31 1024.43 1024.59 1024.79 1025.03 1025.28 1025.52 1025.74 1025.91
1010.20 1010.51 1010.88 1011.31 1011.79 1012.32 1012.88 1013.47 1014.08 1014.70 1015.30 1015.89 1016.45 1016.98 1017.48 1017.95 1018.40 1018.84 1019.28 1019.72 1020.17 1020.61 1021.06 1021.49 1021.89 1022.25 1022.55 1022.79 1022.97 1023.09 1023.18 1023.24 1023.30 1023.37 1023.48 1023.62 1023.81 1024.04 1024.30 1024.58 1024.85 1025.11 1025.33
1010.61 1010.86 1011.19 1011.57 1012.01 1012.50 1013.03 1013.57 1014.13 1014.69 1015.23 1015.75 1016.24 1016.69 1017.13 1017.53 1017.92 1018.30 1018.68 1019.06 1019.46 1019.86 1020.26 1020.66 1021.03 1021.37 1021.68 1021.93 1022.14 1022.30 1022.43 1022.54 1022.64 1022.75 1022.89 1023.05 1023.26 1023.49 1023.76 1024.04 1024.33 1024.60 1024.84
1011.04 1011.25 1011.53 1011.89 1012.31 1012.77 1013.26 1013.76 1014.26 1014.75 1015.22 1015.65 1016.06 1016.43 1016.77 1017.10 1017.42 1017.74 1018.07 1018.42 1018.78 1019.16 1019.55 1019.94 1020.33 1020.69 1021.02 1021.32 1021.57 1021.79 1021.97 1022.13 1022.28 1022.43 1022.59 1022.77 1022.98 1023.21 1023.47 1023.73 1024.00 1024.26 1024.50
1011.54 1011.72 1011.97 1012.31 1012.70 1013.14 1013.60 1014.06 1014.50 1014.92 1015.31 1015.67 1015.98 1016.27 1016.54 1016.80 1017.06 1017.33 1017.62 1017.95 1018.30 1018.69 1019.09 1019.50 1019.92 1020.32 1020.70 1021.05 1021.36 1021.64 1021.87 1022.08 1022.27 1022.45 1022.63 1022.81 1023.01 1023.22 1023.45 1023.68 1023.92 1024.15 1024.35
1012.18 1012.32 1012.55 1012.87 1013.24 1013.65 1014.08 1014.49 1014.89 1015.25 1015.57 1015.85 1016.09 1016.31 1016.52 1016.73 1016.95 1017.20 1017.48 1017.81 1018.17 1018.57 1019.00 1019.45 1019.90 1020.35 1020.77 1021.17 1021.52 1021.84 1022.12 1022.36 1022.57 1022.76 1022.94 1023.12 1023.30 1023.48 1023.67 1023.86 1024.06 1024.24 1024.40
1013.00 1013.10 1013.31 1013.60 1013.95 1014.33 1014.72 1015.10 1015.44 1015.75 1016.02 1016.25 1016.45 1016.62 1016.80 1016.98 1017.19 1017.44 1017.73 1018.07 1018.45 1018.88 1019.34 1019.82 1020.30 1020.77 1021.22 1021.63 1022.01 1022.34 1022.63 1022.88 1023.10 1023.29 1023.46 1023.62 1023.77 1023.93 1024.08 1024.23 1024.37 1024.50 1024.60
1014.01 1014.09 1014.27 1014.53 1014.84 1015.19 1015.54 1015.88 1016.18 1016.45 1016.68 1016.88 1017.05 1017.21 1017.38 1017.57 1017.79 1018.05 1018.36 1018.72 1019.13 1019.58 1020.05 1020.53 1021.01 1021.49 1021.93 1022.33 1022.70 1023.02 1023.29 1023.53 1023.73 1023.91 1024.06 1024.20 1024.33 1024.45 1024.57 1024.67 1024.77 1024.84 1024.89
1015.20 1015.25 1015.40 1015.62 1015.90 1016.20 1016.51 1016.81 1017.09 1017.33 1017.53 1017.72 1017.89 1018.05 1018.23 1018.43 1018.67 1018.96 1019.29 1019.66 1020.08 1020.52 1020.98 1021.45 1021.90 1022.34 1022.74 1023.11 1023.43 1023.71 1023.95 1024.15 1024.32 1024.47 1024.60 1024.72 1024.82 1024.92 1025.01 1025.09 1025.15 1025.17 1025.17
1016.49 1016.52 1016.64 1016.83 1017.06 1017.33 1017.60 1017.86 1018.10 1018.32 1018.52 1018.70 1018.87 1019.05 1019.24 1019.46 1019.72 1020.02 1020.35 1020.72 1021.12 1021.53 1021.95 1022.37 1022.77 1023.14 1023.47 1023.77 1024.03 1024.25 1024.43 1024.59 1024.73 1024.85 1024.96 1025.06 1025.15 1025.24 1025.31 1025.37 1025.40 1025.40 1025.34
1017.80 1017.82 1017.92 1018.08 1018.28 1018.50 1018.73 1018.95 1019.17 1019.37 1019.55 1019.72 1019.90 1020.08 1020.28 1020.51 1020.76 1021.05 1021.36 1021.70 1022.05 1022.41 1022.76 1023.10 1023.41 1023.70 1023.95 1024.17 1024.35 1024.51 1024.64 1024.75 1024.85 1024.95 1025.05 1025.14 1025.24 1025.32 1025.39 1025.44 1025.46 1025.44 1025.36
1019.05 1019.07 1019.15 1019.29 1019.45 1019.64 1019.83 1020.01 1020.20 1020.37 1020.53 1020.69 1020.85 1021.02 1021.21 1021.41 1021.64 1021.88 1022.14 1022.42 1022.69 1022.97 1023.23 1023.48 1023.70 1023.89 1024.06 1024.20 1024.32 1024.41 1024.50 1024.58 1024.66 1024.75 1024.85 1024.94 1025.05 1025.14 1025.22 1025.28 1025.30 1025.28 1025.20
1020.16 1020.20 1020.28 1020.39 1020.52 1020.67 1020.82 1020.97 1021.12 1021.25 1021.38 1021.51 1021.64 1021.77 1021.92 1022.07 1022.24 1022.41 1022.60 1022.78 1022.97 1023.15 1023.32 1023.47 1023.60 1023.71 1023.80 1023.88 1023.94 1024.00 1024.06 1024.12 1024.20 1024.28 1024.38 1024.50 1024.62 1024.74 1024.84 1024.92 1024.96 1024.95 1024.88
1021.13 1021.18 1021.25 1021.34 1021.45 1021.56 1021.67 1021.77 1021.87 1021.96 1022.04 1022.12 1022.20 1022.27 1022.35 1022.43 1022.51 1022.60 1022.69 1022.78 1022.88 1022.96 1023.04 1023.11 1023.17 1023.21 1023.25 1023.28 1023.31 1023.35 1023.39 1023.45 1023.53 1023.62 1023.74 1023.88 1024.02 1024.17 1024.30 1024.41 1024.48 1024.50 1024.46
1021.94 1021.99 1022.05 1022.12 1022.19 1022.26 1022.33 1022.38 1022.43 1022.46 1022.48 1022.50 1022.50 1022.50 1022.50 1022.49 1022.49 1022.48 1022.48 1022.48 1022.49 1022.49 1022.50 1022.50 1022.51 1022.51 1022.51 1022.52 1022.54 1022.56 1022.60 1022.66 1022.75 1022.85 1022.99 1023.15 1023.32 1023.49 1023.66 1023.81 1023.92 1023.98 1023.99
Thickness
5624 5619 5614 5610 5605 5600 5595 5590 5584 5577 5570 5563 5557 5551 5545 5538 5531 5525 5519 5511 5503 5495 5487 5480 5472 5463 5455 5447 5439 5432 5424 5418 5411 5400 5389 5380 5372 5366 5360 5353 5345 5339 5332
5617 5611 5607 5602 5596 5592 5587 5581 5574 5568 5561 5554 5548 5542 5536 5530 5523 5517 5510 5502 5494 5486 5477 5469 5459 5450 5441 5433 5425 5417 5409 5402 5395 5386 5376 5367 5360 5353 5347 5340 5333 5325 5318
5608 5603 5598 5594 5589 5585 5579 5572 5565 5559 5551 5544 5538 5533 5528 5522 5515 5508 5501 5493 5485 5476 5467 5458 5448 5438 5428 5419 5412 5403 5395 5385 5378 5370 5363 5354 5346 5339 5333 5327 5320 5313 5306
5600 5595 5591 5588 5583 5577 5571 5564 5557 5550 5542 5536 5530 5524 5519 5512 5505 5497 5489 5481 5472 5463 5454 5446 5436 5427 5418 5408 5399 5389 5380 5371 5362 5355 5348 5342 5334 5325 5317 5313 5309 5302 5295
5592 5588 5586 5581 5575 5568 5561 5554 5547 5539 5534 5527 5520 5514 5507 5501 5495 5487 5478 5469 5460 5450 5440 5431 5423 5414 5406 5397 5387 5377 5367 5358 5349 5341 5335 5329 5322 5312 5305 5300 5293 5289 5284
5585 5583 5578 5571 5564 5558 5551 5543 5536 5529 5522 5516 5510 5504 5497 5491 5484 5476 5467 5457 5448 5438 5428 5418 5409 5400 5391 5383 5374 5365 5356 5346 5338 5330 5325 5317 5311 5301 5293 5284 5276 5271 5271
5576 5572 5565 5560 5553 5546 5539 5532 5526 5519 5511 5505 5499 5493 5487 5481 5473 5464 5456 5446 5437 5427 5417 5406 5396 5387 5378 5369 5361 5352 5343 5334 5326 5319 5315 5308 5298 5289 5279 5271 5262 5255 5252
5564 5559 5554 5548 5541 5534 5527 5521 5515 5508 5501 5495 5488 5482 5475 5469 5461 5452 5441 5431 5423 5414 5405 5396 5386 5376 5366 5357 5348 5340 5332 5323 5314 5307 5302 5295 5284 5274 5264 5255 5247 5240 5237
5553 5548 5543 5537 5530 5523 5517 5511 5503 5496 5489 5483 5476 5469 5463 5456 5448 5439 5427 5416 5408 5399 5391 5383 5374 5365 5355 5344 5335 5327 5320 5312 5303 5295 5289 5281 5271 5261 5249 5239 5232 5223 5221
5541 5537 5530 5523 5516 5510 5504 5496 5489 5482 5475 5468 5462 5455 5448 5441 5433 5424 5414 5403 5394 5386 5377 5369 5361 5353 5343 5332 5323 5315 5308 5301 5291 5283 5276 5269 5260 5251 5239 5228 5218 5209 5202
5524 5519 5514 5507 5501 5495 5487 5480 5473 5465 5458 5451 5445 5438 5431 5423 5416 5409 5401 5392 5384 5374 5366 5357 5349 5340 5330 5321 5312 5306 5299 5289 5280 5272 5264 5257 5248 5239 5229 5218 5206 5195 5187
5504 5500 5494 5489 5483 5476 5469 5462 5455 5449 5442 5435 5428 5420 5413 5406 5399 5393 5387 5379 5372 5363 5356 5348 5339 5329 5319 5310 5301 5296 5287 5277 5268 5261 5254 5247 5238 5229 5218 5207 5195 5184 5174
5483 5478 5473 5468 5463 5457 5451 5444 5437 5431 5426 5419 5412 5406 5398 5390 5384 5378 5372 5365 5357 5350 5344 5336 5327 5317 5307 5298 5291 5283 5274 5266 5258 5251 5244 5236 5227 5216 5205 5194 5183 5172 5162
5461 5456 5452 5448 5443 5437 5432 5426 5421 5415 5410 5404 5397 5391 5384 5376 5370 5364 5358 5350 5343 5336 5330 5322 5313 5304 5295 5287 5279 5270 5262 5254 5246 5238 5231 5221 5211 5201 5190 5180 5169 5159 5149
5439 5435 5431 5428 5423 5417 5412 5407 5403 5399 5394 5388 5382 5377 5370 5364 5358 5352 5346 5338 5331 5323 5315 5306 5298 5289 5281 5273 5265 5256 5247 5238 5230 5221 5212 5204 5194 5184 5174 5164 5154 5143 5134
5418 5414 5411 5407 5402 5397 5391 5386 5381 5378 5373 5369 5364 5358 5353 5348 5342 5335 5329 5322 5314 5306 5297 5292 5284 5276 5267 5259 5250 5241 5231 5223 5214 5205 5195 5186 5177 5168 5158 5148 5138 5128 5120
5397 5393 5390 5386 5381 5376 5371 5367 5361 5355 5351 5347 5343 5339 5334 5329 5323 5317 5311 5304 5296 5288 5282 5276 5268 5259 5250 5241 5232 5223 5215 5205 5195 5186 5177 5168 5159 5150 5141 5132 5122 5113 5104
5373 5369 5367 5363 5360 5355 5351 5346 5342 5337 5331 5325 5320 5316 5312 5308 5303 5297 5291 5284 5277 5270 5264 5257 5249 5239 5230 5221 5212 5203 5194 5185 5176 5167 5159 5150 5140 5131 5123 5115 5106 5097 5089
5348 5345 5342 5339 5335 5331 5327 5323 5318 5313 5308 5302 5296 5292 5287 5284 5279 5273 5268 5263 5257 5249 5241 5234 5226 5217 5209 5200 5191 5182 5174 5165 5157 5148 5140 5131 5122 5113 5105 5097 5088 5079 5070
5320 5317 5316 5314 5310 5306 5303 5299 5294 5289 5284 5279 5274 5268 5262 5260 5256 5249 5242 5237 5232 5225 5217 5210 5202 5194 5186 5178 5170 5161 5153 5145 5136 5128 5120 5111 5103 5095 5087 5079 5071 5063 5055
5295 5291 5289 5288 5284 5281 5277 5274 5269 5265 5259 5254 5248 5242 5240 5237 5232 5224 5218 5212 5206 5200 5193 5186 5179 5171 5163 5156 5148 5140 5132 5125 5117 5108 5100 5092 5084 5076 5069 5062 5055 5046 5039
5269 5267 5264 5261 5257 5254 5250 5247 5243 5239 5234 5229 5223 5219 5216 5210 5206 5200 5194 5188 5181 5175 5169 5163 5156 5149 5142 5134 5127 5120 5113 5105 5098 5089 5082 5074 5066 5059 5052 5046 5039 5033 5026
5246 5243 5239 5235 5232 5227 5225 5221 5217 5214 5209 5205 5200 5196 5191 5187 5181 5177 5171 5165 5158 5152 5146 5139 5133 5126 5120 5113 5106 5099 5093 5086 5079 5072 5065 5058 5051 5045 5038 5032 5026 5019 5015
5221 5219 5215 5211 5208 5205 5201 5198 5194 5190 5186 5181 5177 5173 5169 5163 5158 5153 5147 5141 5135 5129 5123 5117 5110 5104 5098 5092 5085 5079 5073 5067 5060 5054 5048 5042 5036 5031 5025 5020 5014 5010 5004
5198 5195 5192 5189 5186 5182 5179 5175 5171 5168 5163 5159 5155 5151 5146 5140 5135 5130 5124 5118 5112 5107 5101 5095 5089 5083 5078 5072 5066 5061 5055 5049 5044 5039 5033 5028 5023 5018 5013 5009 5004 5000 4995
5176 5173 5170 5167 5164 5161 5157 5154 5150 5146 5142 5137 5133 5128 5123 5118 5112 5107 5101 5095 5089 5084 5078 5073 5068 5063 5058 5053 5049 5044 5039 5034 5030 5025 5020 5016 5012 5008 5003 4999 4995 4992 4988